Weather reports worldwide

Advertisment
Springfield, vt, United States of America (2074072): temperature & dewpoint: 31.05.2020 13:00:00 - 06.06.2020 13:00:00 (EDT)Springfield, vt, United States of America (2074072): wind speed: 31.05.2020 13:00:00 - 06.06.2020 13:00:00 (EDT)Springfield, vt, United States of America (2074072): wind direction: 31.05.2020 13:00:00 - 06.06.2020 13:00:00 (EDT)Springfield, vt, United States of America (2074072): reduced air pressure: 31.05.2020 13:00:00 - 06.06.2020 13:00:00 (EDT)Springfield, vt, United States of America (2074072): visibility: 31.05.2020 13:00:00 - 06.06.2020 13:00:00 (EDT)Springfield, vt, United States of America (2074072): precipitation: 31.05.2020 13:00:00 - 06.06.2020 13:00:00 (EDT)
Date & Time tt [°C] td [°C] ff [km/h] ff [kn] dd ppp [hPa] vv [km] rr [mm]
06.06.2020 13:00:00 28,3 15,0 16 9 W 1004,8 16 -
06.06.2020 12:00:00 27,2 17,2 13 7 WNW 1005,6 16 0,0
06.06.2020 11:00:00 25,0 20,0 11 6 W 1005,8 16 0,5
06.06.2020 10:00:00 25,0 19,4 0 0 N 1006,1 16 -
06.06.2020 09:00:00 22,8 19,4 0 0 N 1006,9 16 -
06.06.2020 08:00:00 20,6 18,9 0 0 N 1007,3 15 -
06.06.2020 07:00:00 18,9 18,3 0 0 N 1007,2 8 0,0
06.06.2020 06:00:00 18,3 17,2 0 0 N 1007,4 8 0,0
06.06.2020 05:00:00 17,2 16,7 0 0 N 1007,1 4,8 -
06.06.2020 04:00:00 17,8 16,7 0 0 N 1007,5 16 -
06.06.2020 03:00:00 17,2 16,7 0 0 N 1008,1 16 -
06.06.2020 02:00:00 18,3 16,7 0 0 N 1008,2 16 -
06.06.2020 01:00:00 18,9 17,2 0 0 N 1008,8 16 -
06.06.2020 00:00:00 19,4 17,8 5 3 WNW 1009,2 16 -
05.06.2020 23:00:00 20,6 17,8 0 0 N 1009,4 16 -
05.06.2020 22:00:00 21,1 17,8 0 0 N 1009,6 16 -
05.06.2020 21:00:00 22,2 18,3 5 3 NW 1009,1 16 -
05.06.2020 20:00:00 25,6 17,2 0 0 N 1008,8 16 -
05.06.2020 19:00:00 28,3 15,0 8 4 WSW 1008,3 16 -
05.06.2020 18:00:00 28,3 17,2 0 0 N 1008,0 16 -
05.06.2020 17:00:00 27,2 18,9 13 7 ESE 1008,2 16 -
05.06.2020 16:00:00 27,8 18,9 11 6 SE 1008,7 16 -
05.06.2020 15:00:00 26,7 18,9 13 7 ESE 1009,6 16 -
05.06.2020 14:00:00 25,6 18,9 0 0 N 1010,2 16 -
05.06.2020 13:00:00 25,6 17,8 11 6 SE 1010,6 16 -
05.06.2020 12:00:00 26,1 16,7 11 6 W 1010,7 16 -
05.06.2020 11:00:00 23,9 17,8 9 5 SE 1010,6 16 -
05.06.2020 10:00:00 22,8 16,7 8 4 SE 1010,6 16 -
05.06.2020 09:00:00 20,6 16,1 0 0 N 1011,2 16 -
05.06.2020 08:00:00 18,3 16,1 0 0 N 1011,1 16 0,0
05.06.2020 07:00:00 17,2 15,6 0 0 N 1011,2 16 0,0
05.06.2020 06:00:00 17,2 14,4 0 0 N 1011,3 16 0,0
05.06.2020 05:00:00 16,7 14,4 5 3 S 1011,4 16 0,0
05.06.2020 04:00:00 16,7 13,9 0 0 N 1011,1 16 -
05.06.2020 03:00:00 16,7 13,9 0 0 N 1010,9 16 -
05.06.2020 02:00:00 16,1 13,9 0 0 N 1010,7 16 -
05.06.2020 01:00:00 16,1 13,3 0 0 N 1011,1 16 -
05.06.2020 00:00:00 16,7 13,9 0 0 N 1011,3 16 -
04.06.2020 23:00:00 17,8 13,9 0 0 N 1011,1 16 -
04.06.2020 22:00:00 20,0 13,9 0 0 N 1010,7 16 -
04.06.2020 21:00:00 21,1 13,9 5 3 NNW 1010,2 16 -
04.06.2020 20:00:00 26,1 11,1 0 0 N 1009,7 16 -
04.06.2020 19:00:00 27,8 11,1 11 6 - 1009,0 16 -
04.06.2020 18:00:00 27,8 10,0 16 9 WSW 1008,5 16 -
04.06.2020 17:00:00 28,3 10,6 13 7 WSW 1008,6 16 -
04.06.2020 16:00:00 28,9 11,1 26 14 W 1008,8 16 -
04.06.2020 15:00:00 27,8 11,1 15 8 W 1009,1 16 -
04.06.2020 14:00:00 28,3 11,7 13 7 WSW 1009,0 16 -
04.06.2020 13:00:00 27,2 10,6 13 7 W 1009,2 16 -
04.06.2020 12:00:00 25,6 13,3 9 5 - 1009,2 16 -
04.06.2020 11:00:00 24,4 13,3 15 8 WNW 1009,1 16 -
04.06.2020 10:00:00 21,7 13,9 8 4 SW 1009,2 16 -
04.06.2020 09:00:00 16,1 15,0 0 0 N 1009,5 16 -
04.06.2020 08:00:00 13,3 12,8 0 0 N 1009,5 11 -
04.06.2020 07:00:00 11,1 11,1 0 0 N 1008,7 0,4 -
04.06.2020 06:00:00 10,6 10,6 0 0 N 1007,9 0,4 -
04.06.2020 05:00:00 11,1 10,6 0 0 N 1007,3 0,4 -
04.06.2020 04:00:00 11,7 11,7 0 0 N 1006,9 0,4 -
04.06.2020 03:00:00 12,2 12,2 0 0 N 1006,5 0,4 -
04.06.2020 02:00:00 12,8 12,2 0 0 N 1006,0 0,4 -
04.06.2020 01:00:00 13,3 12,8 0 0 N 1005,6 0,4 -
04.06.2020 00:00:00 13,9 12,8 0 0 N 1005,3 2,4 -
03.06.2020 23:00:00 14,4 13,9 0 0 N 1004,7 10 -
03.06.2020 22:00:00 15,0 14,4 5 3 W 1004,1 4,8 -
03.06.2020 21:00:00 15,6 15,6 5 3 W 1002,9 4,8 -
03.06.2020 20:00:00 18,3 17,2 8 4 S 1002,2 16 0,0
03.06.2020 19:00:00 18,9 17,8 0 0 N 1001,7 15 0,3
03.06.2020 18:00:00 18,9 17,8 0 0 N 1000,8 16 0,5
03.06.2020 17:00:00 19,4 17,2 9 5 SW 1000,5 4,8 1,3
03.06.2020 16:00:00 23,3 15,0 9 5 WSW 999,9 16 -
03.06.2020 15:00:00 22,2 15,0 8 4 SSW 1000,3 16 0,0
03.06.2020 14:00:00 20,6 14,4 13 7 SW 1000,3 16 0,0
03.06.2020 13:00:00 21,1 13,9 0 0 N 1000,3 16 -
03.06.2020 12:00:00 20,6 13,3 0 0 N 1001,3 16 -
03.06.2020 11:00:00 18,9 13,3 5 3 SE 1002,1 16 -
03.06.2020 10:00:00 15,6 12,2 0 0 N 1003,2 16 -
03.06.2020 09:00:00 13,9 11,1 0 0 N 1004,0 16 -
03.06.2020 08:00:00 13,3 11,1 0 0 N 1004,2 16 -
03.06.2020 07:00:00 12,2 11,1 5 3 ENE 1004,3 16 -
03.06.2020 06:00:00 11,7 10,6 0 0 N 1004,5 16 -
03.06.2020 05:00:00 11,7 11,1 0 0 N 1004,4 16 -
03.06.2020 04:00:00 11,7 11,1 0 0 N 1005,3 16 -
03.06.2020 03:00:00 11,7 10,6 0 0 N 1005,8 16 0,0
03.06.2020 02:00:00 11,7 11,1 0 0 N 1006,5 16 0,0
03.06.2020 01:00:00 11,7 10,6 0 0 N 1007,5 16 -
03.06.2020 00:00:00 11,7 11,1 8 4 WNW 1008,5 16 0,0
02.06.2020 23:00:00 12,2 10,6 0 0 N 1009,8 15 0,3
02.06.2020 22:00:00 12,2 11,7 0 0 N 1010,4 16 0,3
02.06.2020 21:00:00 12,8 11,7 0 0 N 1010,7 16 -
02.06.2020 20:00:00 12,8 11,7 0 0 N 1010,9 16 -
02.06.2020 19:00:00 13,3 11,1 0 0 N 1010,9 16 0,8
02.06.2020 18:00:00 16,7 8,3 9 5 W 1010,6 11 0,3
02.06.2020 17:00:00 18,9 5,6 9 5 SSW 1010,9 16 -
02.06.2020 16:00:00 19,4 4,4 13 7 W 1011,2 16 -
02.06.2020 15:00:00 18,9 5,0 21 11 WSW 1012,2 16 -
02.06.2020 14:00:00 18,3 6,1 0 0 N 1012,7 16 -
02.06.2020 13:00:00 17,8 7,2 5 3 WSW 1013,8 16 -
02.06.2020 12:00:00 13,9 6,1 5 3 - 1015,3 16 -
02.06.2020 11:00:00 10,6 5,6 0 0 N 1016,5 16 -
02.06.2020 10:00:00 8,3 6,1 0 0 N 1017,6 16 -
02.06.2020 09:00:00 6,1 5,0 0 0 N 1018,0 16 -
02.06.2020 08:00:00 5,6 4,4 0 0 N 1018,5 16 -
02.06.2020 07:00:00 4,4 3,9 5 3 ENE 1018,8 0,8 -
02.06.2020 06:00:00 4,4 3,9 0 0 N 1018,6 0,4 -
02.06.2020 05:00:00 3,9 3,3 9 5 ENE 1018,6 1,2 -
02.06.2020 04:00:00 5,0 4,4 0 0 N 1018,5 0,8 -
02.06.2020 03:00:00 5,0 4,4 0 0 N 1018,7 1,6 -
02.06.2020 02:00:00 5,0 5,0 0 0 N 1018,6 2,0 -
02.06.2020 01:00:00 6,1 5,0 0 0 N 1018,7 16 -
02.06.2020 00:00:00 5,6 5,0 0 0 N 1019,0 16 -
01.06.2020 23:00:00 7,8 6,1 0 0 N 1019,3 16 -
01.06.2020 22:00:00 8,9 6,7 0 0 N 1019,5 16 0,0
01.06.2020 21:00:00 10,0 6,1 9 5 NNW 1019,3 16 0,0
01.06.2020 20:00:00 12,8 2,2 9 5 WNW 1019,1 16 -
01.06.2020 19:00:00 13,3 2,2 0 0 N 1018,7 16 0,0
01.06.2020 18:00:00 13,9 1,7 15 8 WNW 1019,1 16 0,0
01.06.2020 17:00:00 15,0 -0,6 22 12 W 1018,6 16 -
01.06.2020 16:00:00 16,1 0,0 11 6 - 1018,4 16 -
01.06.2020 15:00:00 15,6 -1,1 15 8 NW 1019,1 16 -
01.06.2020 14:00:00 15,0 -2,2 21 11 W 1019,5 16 -
01.06.2020 13:00:00 14,4 -2,8 9 5 - 1020,3 16 -
01.06.2020 12:00:00 13,3 -1,1 16 9 W 1020,9 16 -
01.06.2020 11:00:00 12,8 -0,6 16 9 W 1022,0 16 -
01.06.2020 10:00:00 11,7 0,0 16 9 W 1022,6 16 -
01.06.2020 09:00:00 10,0 1,7 9 5 SE 1022,9 16 -
01.06.2020 08:00:00 7,8 2,8 0 0 N 1023,1 16 -
01.06.2020 07:00:00 2,8 2,2 0 0 N 1023,2 16 -
01.06.2020 06:00:00 1,1 0,6 0 0 N 1022,7 0,8 -
01.06.2020 05:00:00 1,1 0,0 5 3 SW 1022,2 16 -
01.06.2020 04:00:00 1,1 0,0 0 0 N 1021,7 16 -
01.06.2020 03:00:00 2,2 1,1 5 3 ENE 1021,6 16 -
01.06.2020 02:00:00 3,9 1,7 0 0 N 1021,7 16 -
01.06.2020 01:00:00 4,4 2,2 0 0 N 1021,6 16 -
01.06.2020 00:00:00 3,9 1,1 5 3 NE 1021,7 16 -
31.05.2020 23:00:00 3,9 1,1 0 0 N 1021,6 16 -
31.05.2020 22:00:00 5,6 1,1 0 0 N 1021,2 16 -
31.05.2020 21:00:00 8,3 0,0 5 3 NW 1020,8 16 -
31.05.2020 20:00:00 19,4 12,2 0 0 N 1009,6 16 -
31.05.2020 19:00:00 11,1 -0,6 11 6 NW 1020,2 16 -
31.05.2020 18:00:00 11,1 0,6 13 7 NW 1019,8 16 -
31.05.2020 17:00:00 13,3 -0,6 15 8 WNW 1018,8 16 -
31.05.2020 16:00:00 14,4 -1,1 24 13 W 1018,4 16 -
31.05.2020 15:00:00 14,4 -1,1 22 12 WNW 1018,0 16 -
31.05.2020 14:00:00 15,0 -0,6 18 10 NW 1017,8 16 -
31.05.2020 13:00:00 14,4 -1,7 21 11 NW 1017,8 16 -

tt = temperature
td = dewpoint
ff = wind speed
dd = wind direction
ppp = reduced air pressure
vv = visibility
rr = precipitation

Next stations